Weather History for Clinton, MO

Change the Weather History Date:

Saturday, February 8, 2014

  Actual Average (KSZL) Record (KSZL)
Temperature  
Mean Temperature 26 °F -  
Max Temperature 32 °F 42 °F 71 °F (2001)
Min Temperature 21 °F 24 °F 0 °F (2011)
Degree Days  
Heating Degree Days 38    
Moisture  
Dew Point 23 °F    
Average Humidity 83    
Maximum Humidity 93    
Minimum Humidity 68    
Precipitation  
Precipitation 0.00 in - - ()
Sea Level Pressure  
Sea Level Pressure 30.16 in    
Wind  
Wind Speed 4 mph (SSW)    
Max Wind Speed 10 mph    
Max Gust Speed -    
Visibility 7 miles    
Events      
Averages and records for this station are not official NWS values.
T = Trace of Precipitation, MM = Missing Value Source: NWS Daily Summary

Daily Weather History Graph

Daily Weather History Graph

Search for Another Location

Airport:

Trip Planner

Search our weather history database for the weather conditions in past years. The results will help you decide how hot, cold, wet, or windy it might be!

Date:

Astronomy

Feb. 08, 2014 Rise Set
Actual Time 7:13 AM CST 5:45 PM CST
Civil Twilight 6:45 AM CST 6:12 PM CST
Nautical Twilight 6:14 AM CST 6:44 PM CST
Astronomical Twilight 5:43 AM CST 7:14 PM CST
Moon 12:41 PM CST (2/8) 2:25 AM CST (2/8)
Length of Visible Light 11h 27m
Length of Day
10h 32m
Waxing Gibbous, 69% of the Moon is Illuminated
Feb 8
Waxing Gibbous
Feb 14
Full
Feb 22
Last Quarter
Mar 1
New
Mar 8
First Quarter

Hourly Weather History & Observations

Time (CST) Temp. Windchill Dew Point Humidity Pressure Visibility Wind Dir Wind Speed Gust Speed Precip Events Conditions
12:15 AM 21.2 °F 13.6 °F 12.2 °F 68% 30.22 in 10.0 mi SE 5.8 mph - N/A   Overcast
12:35 AM 21.2 °F 13.6 °F 12.2 °F 68% 30.22 in 10.0 mi SSE 5.8 mph - N/A   Overcast
12:55 AM 21.2 °F 16.4 °F 12.2 °F 68% 30.22 in 10.0 mi SE 3.5 mph - N/A   Overcast
1:15 AM 21.2 °F - 12.2 °F 68% 30.22 in 10.0 mi Calm Calm - N/A   Overcast
1:35 AM 21.2 °F - 12.2 °F 68% 30.22 in 10.0 mi Calm Calm - N/A   Overcast
1:55 AM 21.2 °F - 14.0 °F 74% 30.21 in 10.0 mi Calm Calm - N/A   Overcast
2:15 AM 21.2 °F 14.9 °F 14.0 °F 74% 30.20 in 10.0 mi ESE 4.6 mph - N/A   Overcast
2:35 AM 21.2 °F 14.9 °F 14.0 °F 74% 30.20 in 10.0 mi SE 4.6 mph - N/A   Overcast
2:55 AM 21.2 °F - 14.0 °F 74% 30.20 in 10.0 mi Calm Calm - N/A   Overcast
3:15 AM 21.2 °F - 14.0 °F 74% 30.20 in 10.0 mi Calm Calm - N/A   Overcast
3:35 AM 23.0 °F - 14.0 °F 68% 30.19 in 10.0 mi Calm Calm - N/A   Overcast
3:55 AM 23.0 °F - 15.8 °F 74% 30.19 in 10.0 mi Calm Calm - N/A   Mostly Cloudy
4:15 AM 23.0 °F - 15.8 °F 74% 30.18 in 10.0 mi Calm Calm - N/A   Mostly Cloudy
4:35 AM 23.0 °F - 15.8 °F 74% 30.18 in 10.0 mi Calm Calm - N/A   Mostly Cloudy
4:55 AM 23.0 °F - 17.6 °F 80% 30.19 in 10.0 mi Calm Calm - N/A   Overcast
5:15 AM 23.0 °F 17.0 °F 17.6 °F 80% 30.18 in 10.0 mi SSE 4.6 mph - N/A   Mostly Cloudy
5:35 AM 23.0 °F 15.8 °F 17.6 °F 80% 30.18 in 10.0 mi South 5.8 mph - N/A   Overcast
5:55 AM 23.0 °F 14.7 °F 17.6 °F 80% 30.17 in 10.0 mi South 6.9 mph - N/A   Overcast
6:15 AM 24.8 °F 19.1 °F 17.6 °F 74% 30.18 in 10.0 mi South 4.6 mph - N/A   Overcast
6:35 AM 24.8 °F 17.9 °F 19.4 °F 80% 30.18 in 10.0 mi South 5.8 mph - N/A   Overcast
6:55 AM 24.8 °F 17.9 °F 19.4 °F 80% 30.19 in 10.0 mi South 5.8 mph - N/A   Overcast
7:15 AM 24.8 °F 20.5 °F 19.4 °F 80% 30.19 in 10.0 mi SSW 3.5 mph - N/A   Overcast
7:35 AM 24.8 °F 19.1 °F 19.4 °F 80% 30.19 in 9.0 mi SSW 4.6 mph - N/A   Overcast
7:55 AM 24.8 °F 20.5 °F 21.2 °F 86% 30.18 in 8.0 mi South 3.5 mph - N/A   Overcast
8:15 AM 24.8 °F 16.9 °F 21.2 °F 86% 30.17 in 8.0 mi South 6.9 mph - N/A   Overcast
8:35 AM 24.8 °F 17.9 °F 21.2 °F 86% 30.19 in 9.0 mi SSW 5.8 mph - N/A   Overcast
8:55 AM 26.6 °F 21.2 °F 21.2 °F 80% 30.18 in 9.0 mi South 4.6 mph - N/A   Overcast
9:15 AM 26.6 °F 20.0 °F 21.2 °F 80% 30.18 in 9.0 mi South 5.8 mph - N/A   Overcast
9:35 AM 26.6 °F 20.0 °F 21.2 °F 80% 30.18 in 7.0 mi South 5.8 mph - N/A   Overcast
9:55 AM 26.6 °F 18.2 °F 23.0 °F 86% 30.17 in 7.0 mi South 8.1 mph - N/A   Overcast
10:15 AM 26.6 °F 19.1 °F 23.0 °F 86% 30.16 in 7.0 mi South 6.9 mph - N/A   Overcast
10:35 AM 28.4 °F 20.4 °F 23.0 °F 80% 30.17 in 7.0 mi South 8.1 mph - N/A   Overcast
10:55 AM 28.4 °F 20.4 °F 24.8 °F 86% 30.17 in 7.0 mi SSW 8.1 mph - N/A   Overcast
11:15 AM 28.4 °F 20.4 °F 24.8 °F 86% 30.17 in 6.0 mi SSW 8.1 mph - N/A   Overcast
11:35 AM 28.4 °F 19.7 °F 26.6 °F 93% 30.18 in 7.0 mi SSW 9.2 mph - N/A   Overcast
11:55 AM 30.2 °F 21.3 °F 24.8 °F 80% 30.16 in 7.0 mi SW 10.4 mph - N/A   Overcast
12:15 PM 30.2 °F 23.4 °F 24.8 °F 80% 30.15 in 8.0 mi SW 6.9 mph - N/A   Overcast
12:35 PM 30.2 °F 23.4 °F 24.8 °F 80% 30.14 in 9.0 mi SSW 6.9 mph - N/A   Overcast
12:55 PM 30.2 °F 22.6 °F 24.8 °F 80% 30.14 in 8.0 mi SW 8.1 mph - N/A   Overcast
1:15 PM 30.2 °F 21.9 °F 24.8 °F 80% 30.14 in 8.0 mi SW 9.2 mph - N/A   Overcast
1:35 PM 30.2 °F 21.9 °F 26.6 °F 86% 30.14 in 7.0 mi SW 9.2 mph - N/A   Overcast
1:55 PM 30.2 °F 22.6 °F 26.6 °F 86% 30.13 in 7.0 mi SW 8.1 mph - N/A   Overcast
2:15 PM 30.2 °F 23.4 °F 26.6 °F 86% 30.11 in 7.0 mi SW 6.9 mph - N/A   Overcast
2:35 PM 30.2 °F 23.4 °F 26.6 °F 86% 30.10 in 7.0 mi SSW 6.9 mph - N/A   Overcast
2:55 PM 30.2 °F 23.4 °F 26.6 °F 86% 30.09 in 6.0 mi SSW 6.9 mph - N/A   Haze
3:15 PM 30.2 °F 24.3 °F 26.6 °F 86% 30.09 in 6.0 mi SSW 5.8 mph - N/A   Overcast
3:35 PM 30.2 °F 23.4 °F 26.6 °F 86% 30.08 in 5.0 mi SSW 6.9 mph - N/A   Overcast
3:55 PM 30.2 °F 25.4 °F 26.6 °F 86% 30.08 in 6.0 mi SW 4.6 mph - N/A   Overcast
4:15 PM 30.2 °F - 26.6 °F 86% 30.09 in 5.0 mi Calm Calm - N/A   Overcast
4:35 PM 32.0 °F 27.5 °F 26.6 °F 80% 30.10 in 6.0 mi SW 4.6 mph - N/A   Haze
4:55 PM 32.0 °F - 26.6 °F 80% 30.09 in 6.0 mi Calm Calm - N/A   Haze
5:15 PM 32.0 °F - 28.4 °F 87% 30.10 in 5.0 mi Calm Calm - N/A   Overcast
5:35 PM 30.2 °F - 28.4 °F 93% 30.10 in 5.0 mi Calm Calm - N/A   Overcast
5:55 PM 30.2 °F - 28.4 °F 93% 30.11 in 5.0 mi Calm Calm - N/A   Overcast
6:15 PM 30.2 °F - 28.4 °F 93% 30.11 in 7.0 mi Calm Calm - N/A   Overcast
6:35 PM 30.2 °F - 28.4 °F 93% 30.11 in 6.0 mi Calm Calm - N/A   Overcast
6:55 PM 30.2 °F - 28.4 °F 93% 30.12 in 6.0 mi Calm Calm - N/A   Overcast
7:15 PM 30.2 °F - 28.4 °F 93% 30.11 in 6.0 mi Calm Calm - N/A   Overcast
7:35 PM 30.2 °F - 28.4 °F 93% 30.12 in 6.0 mi Calm Calm - N/A   Overcast
7:55 PM 30.2 °F - 28.4 °F 93% 30.13 in 6.0 mi Calm Calm - N/A   Overcast
8:15 PM 30.2 °F - 28.4 °F 93% 30.12 in 6.0 mi Calm Calm - N/A   Overcast
8:35 PM 30.2 °F - 28.4 °F 93% 30.13 in 5.0 mi Calm Calm - N/A   Overcast
8:55 PM 30.2 °F - 28.4 °F 93% 30.15 in 5.0 mi Calm Calm - N/A   Overcast
9:15 PM 30.2 °F - 28.4 °F 93% 30.15 in 5.0 mi Calm Calm - N/A   Overcast
9:35 PM 30.2 °F - 28.4 °F 93% 30.15 in 4.0 mi Calm Calm - N/A   Overcast
9:55 PM 30.2 °F - 28.4 °F 93% 30.15 in 3.0 mi Calm Calm - N/A   Overcast
10:15 PM 30.2 °F - 28.4 °F 93% 30.14 in 3.0 mi Calm Calm - N/A   Overcast
10:35 PM 30.2 °F - 28.4 °F 93% 30.14 in 4.0 mi Calm Calm - N/A   Overcast
10:55 PM 30.2 °F - 28.4 °F 93% 30.14 in 3.0 mi Calm Calm - N/A   Overcast
11:15 PM 30.2 °F - 28.4 °F 93% 30.14 in 3.0 mi Calm Calm - N/A   Overcast
11:35 PM 30.2 °F - 28.4 °F 93% 30.17 in 3.0 mi Calm Calm - N/A   Overcast
11:55 PM 30.2 °F 26.7 °F 28.4 °F 93% 30.17 in 3.0 mi North 3.5 mph - N/A   Overcast